AirNav   Pilot Hours Calculator
 
 1098 users online  

9FL5 Shady Bend Airport
Bell, Florida, USA

GOING TO BELL?


FAA INFORMATION EFFECTIVE 07 OCTOBER 2021

Location

FAA Identifier: 9FL5
Lat/Long: 29-48-50.8350N 082-55-32.4550W
29-48.847250N 082-55.540917W
29.8141208,-82.9256819
(estimated)
Elevation: 25 ft. / 8 m (estimated)
Variation: 02W (1985)
From city: 5 miles NW of BELL, FL
Time zone: UTC -4 (UTC -5 during Standard Time)
Zip code: 32619

Airport Operations

Airport use: Private use. Permission required prior to landing
Activation date: 04/1980
Control tower: no
ARTCC: JACKSONVILLE CENTER
FSS: GAINESVILLE FLIGHT SERVICE STATION
Attendance: UNATNDD
Segmented circle: no

Airport Communications

WX AWOS-3PT at CTY (14 nm SW): 120.775 (352-498-0221)

Nearby radio navigation aids

VOR radial/distance  VOR name  Freq  Var
CTYr028/14.4CROSS CITY VORTAC112.0002W
GNVr286/34.8GATORS VORTAC116.2004W

 
NDB name  Hdg/Dist  Freq  Var  ID
LAKE CITY222/28.720403WLCQ .-.. -.-. --.-

Airport Services

Runway Information

Runway 18/36

Dimensions: 3000 x 100 ft. / 914 x 30 m
Surface: turf
RUNWAY 18  RUNWAY 36
Traffic pattern: leftleft

Airport Ownership and Management from official FAA records

Ownership: Privately-owned
Owner: SHADY BEND AIRPARK LLC
5500 NW 72 WAY
BELL, FL 32619
Phone (352) 949-2188
Manager: TRACY CROOK
5500 NW 72 WAY
BELL, FL 32619
Phone (352) 949-2188

Airport Operational Statistics

Aircraft based on the field: 6
Single engine airplanes: 6
    

Additional Remarks

FOR CD CTC JACKSONVILLE ARTCC AT 904-845-1592.

Instrument Procedures

There are no published instrument procedures at 9FL5.

Some nearby airports with instrument procedures:

KCTY - Cross City Airport (14 nm SW)
KLCQ - Lake City Gateway Airport (29 nm NE)
24J - Suwannee County Airport (30 nm N)
KGNV - Gainesville Regional Airport (35 nm E)
X60 - Williston Municipal Airport (36 nm SE)
 
Loc | Ops | Rwys | IFR | FBO | Links
Com | Nav | Svcs | Stats | Notes
Area around 9FL5 (Shady Bend Airport)
 
Road maps at: MapQuest Bing Google
 
Aerial photo
WARNING: Photo may not be current or correct
Aerial photo of 9FL5 (Shady Bend Airport)
Do you have a better or more recent aerial photo of Shady Bend Airport that you would like to share? If so, please send us your photo.

 
Sectional chart

 
Airport distance calculator
Flying to Shady Bend Airport? Find the distance to fly.

From to 9FL5

Sunrise and sunset
Times for 19-Oct-2021
 Local
(UTC-4)
 Zulu
(UTC)
Morning civil twilight07:1311:13
Sunrise07:3711:37
Sunset18:5622:56
Evening civil twilight19:2123:21

Current date and time
Zulu (UTC)  19-Oct-2021 12:41:37
Local (UTC-4)  19-Oct-2021 08:41:37
 
METAR
KCTY 
18nm SW 
191215Z AUTO 06003KT 10SM CLR 14/12 A3018 RMK AO2 T01390125
KLCQ 
29nm NE 
191215Z AUTO 00000KT 10SM CLR 13/09 A3019 RMK AO2
K24J 
30nm N 
191215Z AUTO 00000KT 9SM CLR 11/11 A3019 RMK A01
KGNV 
34nm E 
191153Z 00000KT 10SM CLR 14/12 A3019 RMK AO2 SLP223 T01390117 10172 20117 53011
KX60 
36nm SE 
118.425 352-528-9949
191215Z AUTO RMK AO2 PWINO TSNO
TAF
KGNV 
34nm E 
191120Z 1912/2012 03004KT P6SM BKN250 FM191700 08009KT P6SM SCT040 SCT250 FM200000 00000KT P6SM SCT250
NOTAMs
Click for the latest NOTAMs
NOTAMs are issued by the DoD/FAA and will open in a separate window not controlled by AirNav.

 

 
 

Would you like to see your business listed on this page?

 If your business provides an interesting product or service to pilots, flight crews, aircraft, or users of the Shady Bend Airport, you should consider listing it here.  To start the listing process, click on the button below
 
Add a business
 

Other Pages about Shady Bend Airport

Update a link
 
Copyright © AirNav, LLC. All rights reserved. Privacy Policy  Contact